Welcome to the New NWS' Forecast!
Most changes are behind the scenes, but click here for differences you might notice.
Latest weather observations around

Ardmore, Ardmore Municipal Airport (KADM)

Using English Units (Switch to International System of Units)
Date/ Time (CST) Wind (mph) Vis. (mi) Weather Sky Cond. Temp (°F) Rel. Humidity Wind Chill (°F) Heat Index (°F) Pressure Precip. (in)
Air Dwpt 6 hour Altimeter (inHg) Sea level (inHg) 1 hr 3 hr 6 hr
Max Min
Nov 12 13:55 NNW 22 10 Cloudy and Windy OVC014 36 32     87% 24   30.33        
Nov 12 12:55 N 20 10 Cloudy and Windy OVC012 36 32     87% 25   30.31        
Nov 12 11:55 N 11 10 Cloudy OVC014 37 36     93% 30   30.31        
Nov 12 10:55 N 16 10 Cloudy OVC014 37 36     93% 28   30.3        
Nov 12 09:55 N 18 10 Light Rain SCT010 OVC016 37 36     93% 28   30.28        
Nov 12 08:55 N 14 7 Light Rain OVC014 37 36     93% 29   30.25        
Nov 12 07:55 N 16 10 Cloudy OVC012 39 37     93% 30   30.22        
Nov 12 06:55 N 10 7 Rain SCT012 BKN019 OVC029 39 37     93% 33   30.19        
Nov 12 06:35 N 11 3 Rain SCT013 BKN024 OVC050 40 38     93% 33   30.18   0    
Nov 12 06:15 N 13 7 Drizzle SCT010 BKN013 OVC050 40 38     92% 33   30.21   0    
Nov 12 05:55 N 13 7 Light Rain SCT012 BKN017 OVC031 42 39     92% 35   30.18   0   0
Nov 12 05:35 NNW 10 5 Rain SCT010 SCT015 OVC026 42 40     93% 36   30.18   0    
Nov 12 05:15 N 10 7 Rain SCT019 BKN028 OVC045 43 39     88% 37   30.16        
Nov 12 04:55 NE 11 10 Light Rain SCT036 OVC044 43 39     85% 37   30.11        
Nov 12 04:35 NNE 8 10 Light Drizzle SCT032 OVC038 44 38     82% 39   30.13        
Nov 12 04:15 NNE 9 10 Drizzle OVC038 44 38     78% 39   30.13        
Nov 12 03:55 N 6 10 Cloudy OVC036 44 39     83% 41   30.11        
Nov 12 03:35 N 3 7 Light Drizzle OVC034 44 39     83% 43   30.12        
Nov 12 03:15 ENE 6 10 Cloudy OVC034 45 38     77% 42   30.1        
Nov 12 02:55 NE 6 10 Cloudy OVC034 45 38     77% 42   30.1        
Nov 12 02:35 E 5 10 Cloudy OVC034 45 38     76% 43   30.1        
Nov 12 02:15 ENE 6 10 Cloudy SCT018 OVC032 45 38     77% 42   30.08        
Nov 12 01:55 E 6 10 Cloudy SCT020 OVC032 45 38     77% 42   30.07        
Nov 12 01:35 ENE 8 10 Cloudy SCT022 OVC032 45 38     74% 41   30.09        
Nov 12 01:15 ENE 9 10 Cloudy OVC032 45 37     73% 41   30.09        
Nov 12 00:55 ENE 8 10 Cloudy OVC031 45 37     73% 41   30.1        
Nov 12 00:35 ENE 10 10 Cloudy OVC031 45 37     73% 40   30.1        
Nov 12 00:15 ENE 9 10 Cloudy OVC031 45 37     73% 41   30.11        
Nov 11 23:55 ENE 6 10 Cloudy OVC031 45 37     72% 42   30.13        
Nov 11 23:35 NE 6 10 Cloudy OVC031 45 37     72% 42   30.14        
Nov 11 23:15 ENE 5 10 Cloudy BKN033 OVC039 45 37     72% 43   30.14        
Nov 11 22:55 ENE 6 10 Cloudy BKN029 OVC035 45 37     73% 42   30.15        
Nov 11 22:35 NE 9 10 Cloudy OVC029 46 37     73% 41   30.16        
Nov 11 22:15 E 7 10 Cloudy OVC029 46 38     73% 42   30.17        
Nov 11 21:55 ENE 5 10 Cloudy BKN029 OVC038 46 38     74% 43   30.17        
Nov 11 21:35 ENE 6 10 Cloudy SCT035 OVC040 46 38     73% 43   30.15        
Nov 11 21:15 ENE 5 10 Cloudy OVC040 46 39     79% 43   30.15        
Nov 11 20:55 NE 3 10 Cloudy OVC040 46 38     73% 45   30.15        
Nov 11 20:35 NE 7 10 Cloudy OVC038 46 38     73% 43   30.15        
Nov 11 20:15 ENE 5 10 Cloudy OVC036 47 38     71% 45   30.14        
Nov 11 19:55 ENE 6 7 Cloudy OVC036 47 38     72% 44   30.13        
Nov 11 19:35 ENE 7 10 Cloudy OVC036 47 39     72% 44   30.13        
Nov 11 19:15 NE 5 10 Cloudy OVC036 47 39     73% 45   30.13        
Nov 11 18:55 E 3 10 Cloudy SCT026 OVC031 47 39     73% 46   30.13        
Nov 11 18:35 ESE 5 10 Cloudy OVC024 47 39     72% 45   30.13        
Nov 11 18:15 ESE 9 10 Cloudy OVC024 47 38     70% 43   30.12        
Nov 11 17:55 ESE 7 10 Cloudy OVC024 48 38     70% 44   30.11        
Nov 11 17:35 E 6 10 Cloudy OVC024 48 38     67% 46   30.11        
Nov 11 17:15 E 7 10 Cloudy OVC024 48 38     67% 45   30.1        
Nov 11 16:55 E 7 10 Cloudy OVC024 48 38     66% 45   30.1        
Nov 11 15:55 SE 8 10 Cloudy OVC030 50 39     66%     30.08        
Nov 11 14:55 SE 7 10 Cloudy BKN024 OVC035 50 39     66%     30.09        
Nov 11 13:55 SE 10 10 Mostly Cloudy BKN028 BKN055 54 41     62%     30.1        
Nov 11 12:55 ESE 6 10 Cloudy OVC055 52 39     62%     30.13        
Nov 11 11:55 SE 10 10 Cloudy OVC055 50 37     62%     30.17        
Nov 11 10:55 SE 9 10 Cloudy OVC065 48 37     66% 44   30.18        
Nov 11 09:55 SE 11 10 Cloudy SCT050 OVC075 50 37     62%     30.19        
Nov 11 08:55 SE 10 10 Cloudy OVC075 46 37     71% 41   30.18        
Nov 11 07:55 SE 9 10 Cloudy BKN060 OVC075 45 36     70% 40   30.18        
Nov 11 06:55 SE 6 10 Cloudy OVC060 45 37     76% 41   30.17        
Nov 11 06:35 ESE 6 10 Cloudy BKN060 OVC070 45 37     73% 42   30.17        
Nov 11 06:15 SE 6 10 Cloudy OVC070 45 37     73% 42   30.17        
Nov 11 05:55 SE 8 10 Cloudy SCT060 OVC070 45 36     73% 40   30.17        
Nov 11 05:35 SE 7 10 Cloudy BKN060 OVC070 45 36     73% 41   30.17        
Nov 11 05:15 SE 6 2 Haze OVC060 45 37     73% 42   30.17        
Nov 11 04:55 SE 7 2 Haze OVC060 45 36     72% 41   30.16        
Nov 11 04:35 SE 8 2.5 Haze OVC060 45 36     70% 41   30.16        
Nov 11 04:15 SE 7 2 Haze OVC060 45 36     70% 41   30.16        
Nov 11 03:55 SE 7 2.5 Haze BKN060 OVC070 45 36     70% 41   30.17        
Nov 11 03:35 SE 7 2.5 Haze OVC070 45 36     70% 41   30.17        
Nov 11 03:15 SE 6 2 Haze OVC065 45 36     70% 42   30.18        
Nov 11 02:55 SE 6 2 Haze BKN065 OVC075 45 36     70% 42   30.18        
Nov 11 02:35 SE 8 3 Haze OVC065 45 36     70% 41   30.18        
Nov 11 02:15 SE 6 2 Haze OVC065 45 35     68% 42   30.18        
Nov 11 01:55 SE 5 2 Haze OVC065 45 35     67% 42   30.18        
Nov 11 01:35 SE 5 2 Haze BKN065 OVC075 45 34     66% 42   30.18        
Nov 11 01:15 ESE 5 1.75 Haze OVC075 45 33     64% 42   30.18        
Nov 11 00:55 SE 6 2 Haze SCT065 OVC075 44 33     63% 41   30.18        
Nov 11 00:35 SE 6 1.75 Haze SCT065 OVC075 44 32     63% 40   30.19        
Nov 11 00:15 ESE 3 1.75 Haze OVC075 44 32     63% 42   30.19        
Nov 10 23:55 ESE 3 1.5 Haze OVC075 43 32     65% 41   30.2        
Nov 10 23:35 E 5 1.5 Haze OVC075 42 32     66% 40   30.2        
Nov 10 23:15 E 6 1.5 Haze SCT065 OVC085 42 32     68% 38   30.2        
Nov 10 22:55 E 3 1.5 Haze BKN065 OVC085 41 31     68% 39   30.2        
Nov 10 22:35 ESE 5 1.75 Haze SCT085 SCT110 41 30     66% 37   30.21        
Nov 10 22:15 ESE 5 1.75 Haze VV007 42 29     62% 39   30.21        
Nov 10 21:55 SE 5 2 Haze BKN080 BKN100 41 30     63% 38   30.21        
Nov 10 21:35 ESE 6 1.5 Haze BKN080 42 30     62% 38   30.2        
Nov 10 21:15 ESE 7 1.75 Haze VV007 42 29     59% 38   30.21        
Nov 10 20:55 SE 3 1.75 Haze VV007 43 29     58% 42   30.22        
Nov 10 20:35 SE 5 2 Haze CLR 43 30     60% 40   30.21        
Nov 10 20:15 SE 5 2 Haze CLR 44 30     58% 41   30.2        
Nov 10 19:55 ESE 3 1.75 Haze VV007 44 30     56% 43   30.2        
Nov 10 19:35 SE 5 2.5 Haze CLR 44 29     57% 41   30.2        
Nov 10 19:15 SE 3 1.75 Haze VV007 46 29     52% 45   30.21        
Nov 10 18:55 Calm 2 Haze SCT090 47 29     51%     30.21        
Nov 10 18:35 SSE 3 4 Haze BKN090 47 29     50% 45   30.21        
Nov 10 18:15 SSE 6 5 Haze BKN090 47 29     48% 45   30.21        
Nov 10 17:55 SSE 5 4 Haze CLR 47 28     47% 45   30.21        
Nov 10 17:35 SE 7 7 Partly Cloudy SCT090 47 28     46% 44   30.22        
Nov 10 17:15 SSE 9 7 Mostly Cloudy BKN090 50 27     41%     30.22        
Nov 10 16:55 S 9 10 Partly Cloudy SCT090 50 27     40%     30.23        
Nov 10 15:55 SE 8 10 Clear CLR 52 27     37%     30.25        
Nov 10 14:55 SE 11 10 Clear CLR 54 25     32%     30.27        
Nov 10 13:55 SSE 10 10 Clear CLR 52 23     32%     30.3        
Nov 10 12:55 SSW 7 10 Clear CLR 50 23     34%     30.33        
Nov 10 11:55 SE 5 7 Haze CLR 46 19     34% 44   30.38        
Nov 10 10:55 SE 6 7 Haze CLR 41 21     45% 37   30.41        
Nov 10 09:55 SSE 8 7 Haze CLR 36 23     60% 29   30.45        
Nov 10 08:55 E 7 7 Haze CLR 32 23     69% 26   30.47        
Nov 10 07:55 E 3 7 Haze CLR 28 23     80% 25   30.47        
Nov 10 06:55 Calm 7 Haze BKN110 27 21     80%     30.46        
Nov 10 06:35 Calm 5 Haze SCT120 26 21     79%     30.46        
Nov 10 06:15 Calm 1.75 Haze SCT120 27 20     74%     30.46        
Nov 10 05:55 ENE 3 1.75 Haze VV007 28 21     75% 24   30.45        
Nov 10 05:35 E 3 2 Haze CLR 28 20     72% 24   30.46        
Nov 10 05:15 E 6 1.75 Haze VV007 28 20     71% 22   30.46        
Nov 10 04:55 NE 6 2 Haze CLR 28 20     72% 22   30.46        
Nov 10 04:35 ENE 6 1.75 Haze VV007 29 20     68% 23   30.46        
Nov 10 04:15 NE 8 3 Haze CLR 29 20     69% 21   30.46        
Nov 10 03:55 NNE 5 3 Haze CLR 29 20     69% 24   30.46        
Nov 10 03:35 NE 3 2.5 Haze CLR 30 21     69% 26   30.46        
Nov 10 03:15 NNE 6 3 Haze CLR 30 21     69% 24   30.47        
Nov 10 02:55 NE 7 3 Haze CLR 31 22     69% 24   30.47        
Nov 10 02:35 NE 10 4 Haze CLR 31 22     69% 22   30.48        
Nov 10 02:15 NNE 6 4 Haze CLR 32 23     71% 26   30.48        
Nov 10 01:55 NE 5 2.5 Haze CLR 32 24     73% 28   30.49        
Nov 10 01:35 NNE 7 2 Haze CLR 33 25     72% 27   30.49        
Nov 10 01:15 NE 5 2.5 Haze CLR 33 26     75% 29   30.49        
Nov 10 00:55 NNE 5 4 Haze CLR 34 27     77% 30   30.48        
Nov 10 00:35 NE 5 4 Haze SCT110 35 28     77% 31   30.48        
Nov 10 00:15 NNE 9 10 Partly Cloudy SCT110 36 29     75% 29   30.48        
Nov 09 23:55 N 6 10 Partly Cloudy SCT100 37 29     74% 32   30.48        
Nov 09 23:35 NNE 10 10 Clear CLR 38 29     72% 31   30.48        
Nov 09 23:15 NNE 9 7 Clear CLR 38 30     74% 31   30.47        
Nov 09 22:55 NNE 6 10 Clear CLR 39 31     72% 34   30.48        
Nov 09 21:55 N 9 10 Partly Cloudy SCT110 39 30     70% 33   30.47        
Nov 09 20:55 N 6 10 Clear CLR 41 32     70% 37   30.45        
Nov 09 19:55 NNE 5 10 Partly Cloudy SCT110 43 32     65% 40   30.45        
Nov 09 18:55 NNE 7 10 Clear CLR 45 32     61% 41   30.43        
Nov 09 17:55 NNE 7 10 Clear CLR 46 30     53% 43   30.4        
Nov 09 16:55 N 7 10 Clear CLR 52 30     43%     30.39        
Nov 09 15:55 N 7 10 Clear CLR 55 30     38%     30.39        
Nov 09 14:55 N 10 10 Clear CLR 55 32     41%     30.39        
Nov 09 13:55 NNW 7 10 Clear CLR 52 34     50%     30.4        
Nov 09 12:55 N 7 10 Clear CLR 50 36     58%     30.42        
Nov 09 11:55 N 9 10 Mostly Cloudy BKN024 46 36     66% 42   30.44        
Nov 09 10:55 NNW 15 10 Cloudy OVC022 45 36     70% 38   30.44        
Nov 09 09:55 N 9 10 Cloudy OVC020 45 36     70% 40   30.43        
Nov 09 08:55 NNW 13 10 Cloudy OVC015 41 36     81% 34   30.41        
Nov 09 07:55 N 11 10 Cloudy OVC015 41 37     87% 34   30.38        
Nov 09 06:55 NNE 8 10 Cloudy OVC015 41 36     81% 36   30.34        
Nov 09 06:35 NNE 13 10 Cloudy OVC015 41 36     83% 34   30.33        
Nov 09 06:15 N 9 10 Cloudy OVC015 41 37     85% 35   30.33        
Nov 09 05:55 N 8 10 Cloudy OVC015 41 37     84% 36   30.32        
Nov 09 05:35 N 15 10 Cloudy OVC015 41 36     83% 33   30.32        
Nov 09 05:15 N 10 10 Cloudy OVC015 41 37     84% 35   30.31        
Nov 09 04:55 N 15 10 Cloudy OVC017 42 37     82% 34   30.3        
Nov 09 04:35 N 11 10 Cloudy OVC017 42 38     83% 36   30.3        
Nov 09 04:15 N 14 10 Cloudy OVC017 43 38     82% 36   30.29        
Nov 09 03:55 N 8 10 Cloudy OVC018 43 38     83% 38   30.28        
Nov 09 03:35 N 11 10 Cloudy OVC020 43 38     82% 37   30.28        
Nov 09 03:15 N 10 10 Cloudy OVC020 43 38     82% 38   30.27        
Nov 09 02:55 NNW 9 10 Cloudy OVC020 43 39     83% 38   30.27        
Nov 09 02:35 N 10 10 Cloudy OVC020 43 39     83% 38   30.27        
Nov 09 02:15 N 13 10 Cloudy BKN017 OVC024 43 38     83% 37   30.27        
Nov 09 01:55 N 14 10 Cloudy BKN012 BKN018 OVC024 43 39     86% 36   30.26        
Nov 09 01:35 N 10 10 Cloudy OVC012 44 40     88% 38   30.26        
Nov 09 01:15 N 16 10 Cloudy BKN014 OVC023 44 40     85% 37   30.25        
Nov 09 00:55 N 11 10 Cloudy OVC014 45 41     86% 39   30.24        
Nov 09 00:35 N 8 10 Cloudy BKN014 OVC025 45 41     87% 40   30.24        
Nov 09 00:15 N 10 10 Cloudy BKN027 BKN060 OVC090 45 41     87% 39   30.23        
Nov 08 23:55 N 7 10 Cloudy SCT015 SCT022 OVC027 45 42     88% 41   30.23        
Nov 08 23:35 N 10 10 Cloudy OVC017 45 42     88% 40   30.23        
Nov 08 23:15 N 11 10 Cloudy BKN014 OVC019 45 42     86% 40   30.23        
Nov 08 23:00 N 13 10 Cloudy OVC016 46 42     85% 40   30.22        
Nov 08 21:55 N 9 10 Cloudy OVC014 46 41     81% 42   30.21        
Nov 08 20:55 N 10 10 Cloudy OVC012 46 43     87% 41   30.18        
Nov 08 19:55 N 11 10 Cloudy OVC014 46 43     87% 41   30.17        
Nov 08 18:55 N 11 10 Mostly Cloudy BKN075 BKN090 48 43     81% 43   30.13        
Nov 08 17:55 N 8 10 Cloudy OVC026 50 45     82%     30.11        
Nov 08 16:55 NNE 7 10 Cloudy OVC026 52 46     82%     30.09        
Nov 08 15:55 NNE 7 10 Cloudy OVC026 52 46     82%     30.08        
Nov 08 14:55 N 9 10 Cloudy OVC024 52 48     87%     30.08        
Nov 08 13:55 NNW 7 10 Cloudy OVC031 52 48     87%     30.08        
Nov 08 12:55 Calm 10 Cloudy OVC031 55 45     67%     30.09        
Nov 08 11:55 E 7 7 Cloudy OVC029 57 43     59%     30.1        
Nov 08 10:55 E 6 7 Cloudy OVC029 55 45     67%     30.13        
Nov 08 09:55 E 7 10 Cloudy OVC031 55 43     62%     30.14        
Nov 08 08:55 ESE 6 7 Cloudy OVC029 55 43     62%     30.15        
Nov 08 07:55 E 10 7 Cloudy OVC031 55 45     67%     30.14        
Nov 08 06:55 E 8 5 Haze OVC029 54 45     71%     30.11        
Nov 08 06:35 E 7 5 Haze OVC029 54 45     72%     30.11        
Nov 08 06:15 E 6 7 Cloudy OVC029 54 45     73%     30.11        
Nov 08 05:55 E 6 5 Haze OVC029 54 45     72%     30.11        
Nov 08 05:35 ENE 6 5 Haze OVC031 54 45     71%     30.12        
Nov 08 05:15 ENE 6 5 Haze OVC031 54 45     71%     30.12        
Nov 08 04:55 NE 7 10 Cloudy OVC031 54 45     71%     30.12        
Nov 08 04:35 ENE 8 7 Cloudy OVC031 54 45     71%     30.11        
Nov 08 04:15 ENE 7 5 Haze OVC033 54 44     70%     30.11        
Nov 08 03:55 ENE 6 7 Cloudy OVC037 54 44     69%     30.11        
Nov 08 03:35 ENE 7 7 Cloudy OVC037 54 44     69%     30.11        
Nov 08 03:15 ENE 6 7 Cloudy OVC035 54 44     69%     30.11        
Nov 08 02:55 ENE 8 7 Cloudy OVC033 54 44     69%     30.12        
Nov 08 02:35 NNE 7 10 Cloudy OVC031 54 44     70%     30.12        
Nov 08 02:15 NNE 6 10 Cloudy OVC031 53 44     72%     30.12        
Nov 08 01:55 NE 10 10 Cloudy OVC031 54 44     70%     30.12        
Nov 08 01:35 NE 7 10 Cloudy OVC033 53 44     72%     30.12        
Nov 08 01:15 ENE 5 10 Cloudy SCT033 BKN040 OVC047 54 44     69%     30.12        
Nov 08 00:55 ENE 6 10 Cloudy OVC040 54 43     67%     30.12        
Nov 08 00:35 NNE 6 10 Cloudy OVC040 53 43     68%     30.13        
Nov 08 00:15 ENE 6 10 Cloudy OVC042 54 44     68%     30.13        
Nov 07 23:55 NNE 7 10 Cloudy OVC042 55 44     66%     30.13        
Nov 07 23:35 NE 8 10 Cloudy OVC042 56 42     59%     30.13        
Nov 07 23:15 NE 10 7 Cloudy OVC040 57 44     63%     30.13        
Nov 07 23:00 NE 7 7 Light Rain OVC036 57 50     76%     30.13        
Nov 07 21:55 ENE 7 5 Haze OVC036 59 50     72%     30.13        
Nov 07 20:55 ENE 11 7 Cloudy OVC032 59 50     72%     30.12        
Nov 07 19:55 ENE 7 7 Cloudy OVC036 59 50     72%     30.1        
Nov 07 18:55 ENE 10 7 Cloudy OVC032 59 52     77%     30.09        
Nov 07 17:55 ENE 10 7 Cloudy OVC028 59 52     77%     30.08        
Nov 07 16:55 ENE 11 7 Cloudy OVC024 59 52     77%     30.07        
Nov 07 15:55 ENE 14 7 Cloudy OVC026 61 52     72%     30.06        
Nov 07 13:55 ENE 10 7 Cloudy SCT025 OVC032 61 52     72%     30.05        
Nov 07 12:55 NNE 11 10 Cloudy BKN023 OVC029 59 50     72%     30.06        
Nov 07 11:55 NE 16 10 Cloudy OVC021 59 50     72%     30.08        
Nov 07 10:55 NNE 16 10 Cloudy OVC021 59 50     72%     30.1        
Nov 07 09:55 NNE 15 10 Mostly Cloudy SCT019 SCT060 BKN075 59 50     72%     30.1        
Nov 07 08:55 NE 8 10 Mostly Cloudy BKN070 55 50     82%     30.09        
Nov 07 07:55 NNE 11 10 Cloudy SCT013 BKN034 OVC050 54 48     82%     30.06        
Nov 07 06:55 NNE 10 10 Cloudy OVC032 54 50     88%     30.03        
Nov 07 06:35 NNE 11 10 Cloudy BKN032 OVC095 54 50     85%     30.02        
Nov 07 06:15 NNE 10 10 Cloudy OVC032 55 50     83%     30.02        
Nov 07 05:55 NNE 11 10 Cloudy OVC030 56 50     81%     30        
Nov 07 05:35 NNE 8 10 Cloudy OVC030 56 50     80%     30        
Nov 07 05:15 NNE 10 10 Cloudy OVC030 57 51     80%     30        
Nov 07 04:55 NNE 8 10 Cloudy OVC032 57 50     78%     29.99        
Nov 07 04:35 NE 8 10 Cloudy OVC032 57 50     77%     29.98        
Nov 07 04:15 NNE 9 10 Cloudy BKN030 BKN035 OVC050 58 50     75%     29.97        
Nov 07 03:55 NNE 7 10 Cloudy BKN032 OVC048 58 50     74%     29.96        
Nov 07 03:35 NNE 8 10 Cloudy OVC030 58 50     75%     29.96        
Nov 07 03:15 NE 7 10 Cloudy OVC030 58 49     73%     29.96        
Nov 07 02:55 NE 10 10 Cloudy OVC030 58 49     73%     29.97        
Nov 07 02:35 NE 8 10 Cloudy OVC030 58 50     73%     29.96        
Nov 07 02:15 NE 6 10 Cloudy OVC030 58 49     73%     29.96        
Nov 07 01:55 NE 7 10 Cloudy OVC030 58 49     72%     29.96        
Nov 07 01:35 NE 9 10 Cloudy BKN032 OVC090 58 49     72%     29.95        
Nov 07 01:15 ENE 9 10 Cloudy OVC032 58 49     72%     29.96        
Nov 07 00:55 ENE 6 10 Mostly Cloudy BKN034 BKN095 57 49     74%     29.96        
Nov 07 00:35 ENE 7 10 Mostly Cloudy SCT036 BKN050 BKN095 58 50     75%     29.97        
Nov 07 00:15 NE 8 10 Cloudy SCT032 OVC050 58 50     74%     29.96        
Nov 06 23:55 NE 9 10 Cloudy BKN030 OVC075 58 50     75%     29.97        
Nov 06 23:35 NNE 8 10 Cloudy OVC030 58 52     80%     29.97        
Nov 06 23:15 NNE 8 10 Cloudy OVC030 58 54     84%     29.97        
Nov 06 22:55 NNE 9 5 Light Rain OVC030 59 54     86%     29.96   0    
Nov 06 21:55 ENE 10 10 Cloudy BKN030 OVC042 66 50     56%     29.95        
Nov 06 20:55 NE 8 10 Cloudy OVC030 68 52     56%     29.94        
Nov 06 19:55 E 5 10 Cloudy BKN028 OVC038 70 54     56%     29.92        
Nov 06 18:55 E 6 10 Cloudy OVC030 70 54     56%     29.9        
Nov 06 17:55 E 6 10 Clear CLR 70 54     56%     29.87        
Nov 06 16:55 ESE 7 10 Clear CLR 73 54     50%   73 29.85        
Nov 06 15:55 ESE 14 10 Clear CLR 75 52     44%   74 29.85        
Nov 06 14:55 SE 9 10 Clear CLR 77 48     36%   76 29.86        
Nov 06 13:55 SE 8 10 Clear CLR 75 46     36%   74 29.87        
Nov 06 12:55 SE 16 10 Clear CLR 75 45     34%   74 29.9        
Nov 06 11:55 SE 13 10 Clear CLR 73 45     36%   72 29.94        
Nov 06 10:55 ESE 8 10 Clear CLR 70 48     46%     29.96        
Nov 06 09:55 SE 5 10 Partly Cloudy SCT065 SCT120 64 52     64%     29.98        
Nov 06 08:55 Calm 10 Clear CLR 55 52     88%     29.97        
Nov 06 07:55 Calm 10 Mostly Cloudy BKN070 48 46     93%     29.96        
Nov 06 06:55 Calm 10 Clear CLR 43 43     100%     29.94        
Nov 06 06:35 Calm 10 Partly Cloudy SCT075 SCT110 43 43     98%     29.93        
Nov 06 06:15 Calm 10 Mostly Cloudy BKN075 44 43     97%     29.92        
Nov 06 05:55 Calm 10 Mostly Cloudy BKN075 42 42     99%     29.92        
Nov 06 05:35 Calm 10 Partly Cloudy SCT075 42 42     100%     29.91        
Nov 06 05:15 Calm 10 Clear CLR 43 43     100%     29.91        
Nov 06 04:55 NE 3 10 Clear CLR 42 41     98% 40   29.91        
Nov 06 04:35 Calm 10 Clear CLR 43 42     99%     29.9        
Nov 06 04:15 Calm 10 Clear CLR 43 42     99%     29.89        
Nov 06 03:55 Calm 10 Clear CLR 44 44     100%     29.88        
Nov 06 03:35 Calm 10 Clear CLR 44 44     100%     29.87        
Nov 06 03:15 Calm 2 Fog/Mist CLR 44 44     100%     29.88        
Nov 06 02:55 Calm 10 Clear CLR 43 43     100%     29.88        
Nov 06 02:35 Calm 0.25 Fog VV002 44 44     100%     29.88        
Nov 06 02:15 Calm 0.5 Fog VV005 45 45     100%     29.88        
Nov 06 01:55 Calm 10 Clear CLR 45 45     100%     29.87        
Nov 06 01:35 Calm 0.5 Fog BKN110 45 44     99%     29.87        
Nov 06 01:15 Calm 4 Fog/Mist SCT110 45 44     99%     29.87        
Nov 06 00:55 Calm 1.25 Fog/Mist SCT090 BKN110 46 46     99%     29.87        
Nov 06 00:35 Calm 1 Fog/Mist VV007 46 45     97%     29.87        
Nov 06 00:15 Calm 10 Clear CLR 47 47     98%     29.87        
Nov 05 23:55 Calm 10 Clear CLR 47 47     98%     29.87        
Nov 05 23:35 Calm 10 Clear CLR 46 45     97%     29.87        
Nov 05 23:15 Calm 10 Clear CLR 47 45     95%     29.87        
Nov 05 22:55 Calm 10 Clear CLR 49 48     95%     29.87        
Nov 05 21:55 Calm 10 Clear CLR 48 46     93%     29.86        
Nov 05 20:55 Calm 10 Clear CLR 54 48     82%     29.85        
Nov 05 19:55 Calm 10 Clear CLR 55 50     82%     29.82        
Nov 05 18:55 Calm 10 Clear CLR 57 48     72%     29.8        
Nov 05 17:55 NW 3 10 Clear CLR 66 50     56%     29.76        
Nov 05 16:55 NW 13 10 Clear CLR 70 50     49%     29.73        
Nov 05 15:55 NNW 9 10 Clear CLR 75 48     38%   74 29.71        
Nov 05 14:55 WNW 9 10 Clear CLR 75 52     44%   74 29.69        
Nov 05 13:55 W 9 10 Clear CLR 73 54     50%   73 29.69        
Nov 05 12:55 W 14 10 Clear CLR 73 55     53%   73 29.69        
Nov 05 11:55 WSW 17 10 Clear CLR 70 54     56%     29.7        
Nov 05 10:55 SW 17 10 Clear CLR 70 55     60%     29.72        
Nov 05 09:55 SSW 9 10 Clear CLR 63 54     72%     29.73        
Nov 05 08:55 SSW 10 10 Clear CLR 61 54     77%     29.74        
Nov 05 07:55 SSE 6 10 Clear CLR 59 52     77%     29.73        
Nov 05 06:55 SE 6 10 Cloudy OVC040 55 50     82%     29.74        
Nov 05 05:35 SE 6 10 Cloudy OVC040 54 48     79%     29.77        
Nov 05 05:15 SE 7 10 Cloudy OVC044 54 48     81%     29.77        
Nov 05 04:55 SE 6 10 Cloudy OVC046 53 48     83%     29.77        
Nov 05 04:35 SSE 5 10 Cloudy OVC046 53 48     85%     29.79        
Nov 05 04:15 SSE 6 10 Cloudy OVC048 52 48     86%     29.79        
Nov 05 03:55 SE 3 10 Mostly Cloudy BKN050 51 47     89%     29.8        
Nov 05 03:35 ESE 3 10 Partly Cloudy SCT050 50 46     88% 49   29.82        
Nov 05 03:15 ESE 3 10 Partly Cloudy SCT050 SCT100 50 47     88%     29.83        
Nov 05 02:55 ESE 3 10 Mostly Cloudy BKN050 BKN100 50 47     88%     29.83        
Nov 05 02:35 ESE 3 10 Cloudy OVC050 50 46     86%     29.85        
Nov 05 02:15 ESE 3 10 Partly Cloudy SCT055 51 47     83%     29.87        
Nov 05 01:55 SE 3 10 Partly Cloudy SCT055 51 46     83%     29.87        
Nov 05 01:35 SE 6 10 Cloudy OVC055 51 46     84%     29.87        
Nov 05 01:15 ESE 6 10 Cloudy OVC065 50 46     85%     29.88        
Nov 05 00:55 Calm 10 Cloudy OVC065 48 45     90%     29.9        
Nov 05 00:35 ESE 3 10 Mostly Cloudy BKN065 47 45     95% 46   29.9        
Nov 05 00:15 Calm 10 Clear CLR 45 44     93%     29.91        
Nov 04 23:55 Calm 10 Clear CLR 45 43     92%     29.91        
Nov 04 23:35 Calm 10 Clear CLR 47 44     88%     29.93        
Nov 04 23:15 Calm 10 Clear CLR 46 44     92%     29.93        
Nov 04 22:55 Calm 10 Clear CLR 47 44     88%     29.93        
Nov 04 22:35 Calm 10 Clear CLR 46 44     90%     29.94        
Nov 04 22:15 Calm 10 Clear CLR 47 44     89%     29.94        
Nov 04 21:55 Calm 10 Clear CLR 47 45     92%     29.94        
Nov 04 21:35 Calm 10 Clear CLR 46 44     93%     29.95        
Nov 04 21:15 Calm 10 Clear CLR 47 44     88%     29.95        
Nov 04 20:55 Calm 10 Clear CLR 48 44     87%     29.94        
Nov 04 20:35 Calm 10 Clear CLR 47 43     88%     29.95        
Nov 04 20:15 Calm 10 Clear CLR 45 42     88%     29.95        
Nov 04 19:55 Calm 10 Clear CLR 49 44     82%     29.95        
Nov 04 19:35 Calm 10 Clear CLR 48 43     83%     29.96        
Nov 04 19:15 SE 3 10 Clear CLR 52 45     76%     29.96        
Nov 04 18:55 SE 3 10 Clear CLR 51 44     77%     29.97        
Nov 04 18:35 SSE 5 10 Clear CLR 51 45     81%     29.96        
Nov 04 18:15 SE 3 10 Partly Cloudy SCT100 54 44     69%     29.96        
Nov 04 17:55 ESE 3 10 Mostly Cloudy BKN100 56 43     63%     29.96        
Nov 04 17:35 SE 3 10 Partly Cloudy SCT110 57 43     59%     29.97        
Nov 04 17:20 Calm 10 Clear CLR 56 42     59%     29.97        
Nov 04 16:55 S 5 10 Clear CLR 58 41     53%     29.98        
Nov 04 15:55 SSW 6 10 Clear CLR 61 39     45%     30        
Nov 04 14:55 Calm 10 Clear CLR 64 39     39%     30.01        
Nov 04 13:55 NNW 6 10 Clear CLR 63 39     42%     30.04        
Nov 04 11:55 NNW 11 10 Clear CLR 59 39     48%     30.1        
Nov 04 10:55 N 9 10 Clear CLR 57 43     59%     30.12        
Nov 04 09:55 NNW 11 10 Clear CLR 54 43     67%     30.13        
Nov 04 08:55 NNE 9 10 Clear CLR 52 43     71%     30.13        
May 15 00:35 N 11 10 Thunderstorms and Rain BKN036 BKN043 76 69     78%   77 29.94        
May 14 23:35 Calm 10 Partly Cloudy SCT055 78 69     73%   79 29.89        
May 14 18:55 SSE 10 10 Clear CLR 85 69     58%   89 29.83        
May 14 00:15 Calm 10 Partly Cloudy SCT070 72 67     85%   73 29.97        
May 13 21:55 SE 3 10 Clear CLR 77 67     73%   77 29.94        
May 13 18:15 SSE 8 10 Partly Cloudy SCT047 SCT060 SCT070 86 68     54%   90 29.91        
May 13 13:55 SSE 13 10 Partly Cloudy SCT040 SCT046 88 70     55%   93 29.98        
May 13 02:15 SSE 6 10 Clear CLR 72 66     82%   73 29.94        
May 12 17:55 SSE 17 10 Clear CLR 86 66     51%   88 29.89        
May 12 01:35 SE 3 10 Clear CLR 72 63     75%   72 29.88        
May 12 00:55 Calm 10 Clear CLR 72 64     75%   72 29.87        
May 11 21:15 S 6 10 Clear CLR 77 63     62%   78 29.81        
May 11 20:55 SSE 8 10 Clear CLR 78 63     60%   79 29.8        
May 11 16:55 S 13 10 Clear CLR 86 65     49%   87 29.81        
May 11 15:55 S 22 10 Clear and Windy CLR 86 63     46%   87 29.82        
Jun 12 07:55 SSE 5 10 Partly Cloudy SCT013 SCT090 77 72     83%   78 29.93        
Notice The following observation data may not be complete
Jun 12 07:15   10 Clear CLR          %              
Jun 11 22:15 SE 5 10 Clear CLR 76 65     67%   77 29.89        
Jun 11 21:15 SE 7 10 Clear CLR 80 63     58%   81 29.86        
Jun 11 16:55 SSE 15 10 Clear CLR 90 68     49%   93 29.87        
Jun 11 02:20 SE 6 10 Clear CLR 73 66     79%   74 29.87        
Jun 10 21:55 SSE 13 10 Clear CLR 80 66     62%   82 29.85        
Notice The following observation data may not be complete
Jun 10 04:15   10 Clear CLR          %              
Notice The following observation data may not be complete
Jun 09 22:15   10 Cloudy OVC037          %              
Jun 08 22:35 ESE 5 10 Clear CLR 71 62     73%   71 29.92        
Jun 08 22:15 ESE 5 10 Clear CLR 71 62     73%   71 29.91        
Jun 08 20:40 E 5 10 Clear CLR 75 62     63%   76 29.89        
Jun 08 10:55 SSE 8 10 Clear CLR 81 59     48%   81 30.03        
Notice The following observation data may not be complete
Jun 08 05:35   10 Clear CLR          %              
Jun 08 04:55 Calm 10 Clear CLR 61 59     93%     30        
Jun 06 12:55 N 15 10 Clear CLR 91 61     36%   91 29.91        
Notice The following observation data may not be complete
Jun 06 08:55   10 Clear CLR          %              
Jun 06 02:55 Calm 7 Clear   70 70     99%     29.86        
Notice The following observation data may not be complete
Jun 06 00:35   10 Clear CLR          %              
Notice The following observation data may not be complete
Jun 05 20:35   10 Clear CLR          %